TIME,DELAY(SENSOR),PRES,T(CTD),SAL,OXYGEN,RAWTEMP,T(OPTODE),TCPHASE,FLUOR,BETA(BETA700),BETA(BETA412),BETA(BETA440),CDOM,C(CSC),ED(ED412.40),ED(ED444.00),ED(ED489.70),ED(ED554.30),LU(LU411.80),LU(LU443.40),LU(LU489.60),LU(LU554.10),COMP,TILTX,TILTX(TILTY),CHECK
1370209503,5809,495.3200073242187500,6.4882001876831055,34.1337013244628900,70.3873214721679700,603.4072265625000000,6.4741477966308590,50.1206703186035160,52,106,89,79,78,14802,2147747090,2147424109,2148002706,2147873974,2147627702,2147065380,2148245284,2147200073,2793,4,13,59021
1370209627,5808,484.3699951171875000,6.6194000244140625,34.1166000366210940,78.2496185302734400,599.5731811523438000,6.5980510711669920,49.1085510253906250,52,103,87,79,80,14804,2147747949,2147423506,2148006409,2147876105,2147630390,2147071652,2148246235,2147200228,1767,4,13,50567
1370209742,5811,472.3299865722656000,6.7227001190185550,34.1021995544433600,84.7030715942382800,596.3156738281250000,6.7032179832458500,48.3105201721191400,51,103,86,80,78,14802,2147747465,2147426642,2148006080,2147874962,2147627410,2147072685,2148247579,2147198820,1406,4,13,51545
1370209845,5804,461.1400146484375000,6.9011998176574710,34.0807991027832000,95.1016082763671900,591.0114135742188000,6.8742489814758300,47.0777702331543000,52,103,88,81,77,14810,2147746139,2147424146,2148007232,2147873737,2147626907,2147072347,2148243520,2147201280,1358,4,13,43465
1370209963,5808,450.0199890136719000,7.0910000801086430,34.0866012573242200,102.4665985107421900,584.9315795898438000,7.0699620246887210,46.2025184631347660,51,102,88,79,76,14781,2147746002,2147424246,2148007332,2147874596,2147630089,2147071506,2148243346,2147200859,102,4,13,62765
1370210090,5804,439.9100036621094000,7.2750000953674320,34.0951995849609400,105.1616973876953100,579.2556762695312000,7.2523670196533200,45.8334388732910160,50,103,89,79,76,14807,2147742866,2147421851,2148002925,2147873700,2147627620,2147080082,2148243017,2147199954,2861,4,13,32443
1370210243,5806,428.9400024414062500,7.5128002166748050,34.0961990356445300,110.6903991699218800,571.6486206054688000,7.4963860511779785,45.1508216857910160,51,104,86,80,76,14804,2147741851,2147424832,2148006802,2147875145,2147624045,2147079177,2148242185,2147200859,1279,4,13,58427
1370210406,5806,418.2999877929687500,7.6968998908996580,34.0833015441894500,124.7035980224609400,566.0208740234375000,7.6765789985656740,43.7097091674804700,50,103,85,80,76,14800,2147737060,2147423067,2148004644,2147873654,2147622582,2147082441,2148238336,2147199433,837,4,13,48387
1370210586,5805,406.3699951171875000,7.9836997985839840,34.0643997192382800,144.1508026123047000,556.8967895507812000,7.9681429862976070,41.8416099548339840,50,102,86,81,75,14807,2147740288,2147425188,2148004882,2147874395,2147622902,2147084626,2148231488,2147200850,3118,4,13,39599
1370210725,5807,395.2399902343750000,8.3245000839233400,34.0707015991210940,157.8224029541015600,545.9940795898438000,8.3156242370605470,40.5513496398925800,50,103,90,79,74,14802,2147740525,2147424091,2148004973,2147874880,2147621650,2147079835,2148234486,2147201929,2893,4,13,27947
1370210884,5806,380.8399963378906000,8.6904001235961910,34.0796012878418000,169.2247009277343800,532.0515747070312000,8.7585849761962890,39.4471893310546900,50,102,85,80,74,14808,2147738633,2147423040,2148009426,2147876196,2147619757,2147086628,2148236662,2147205787,1469,4,13,5713
1370210987,5805,369.4299926757812500,8.8934001922607420,34.0915985107421900,177.1658020019531200,528.0214843750000000,8.8863372802734380,38.8089981079101560,50,103,88,80,72,14801,2147736420,2147425270,2148007780,2147871853,2147614601,2147086646,2148228516,2147203410,1799,4,13,40450
1370211078,5808,359.0199890136719000,9.1875000000000000,34.0957984924316400,184.0355987548828000,518.9473876953125000,9.1735267639160160,38.1803207397460940,49,103,86,80,72,14803,2147741193,2147424640,2148008548,2147873316,2147614491,2147088731,2148229220,2147203547,2410,4,13,34000
1370211196,5807,347.1400146484375000,9.4895000457763670,34.1046981811523440,189.8563995361328000,509.2784118652344000,9.4788732528686520,37.6268806457519500,50,104,87,80,72,14803,2147738605,2147426038,2148010523,2147872667,2147615872,2147087323,2148232045,2147202477,3129,4,13,4953
1370211323,5810,336.8099975585937500,9.8810997009277340,34.1213989257812500,198.1445007324218800,496.3306884765625000,9.8867149353027340,36.8768806457519500,50,104,87,80,70,14800,2147740068,2147425472,2148017161,2147872996,2147616155,2147093979,2148231360,2147201252,3047,4,13,62161
1370211476,5807,325.7699890136719000,10.3845996856689450,34.1327018737793000,204.5451965332031200,481.0314025878906000,10.3671398162841800,36.2280693054199200,49,106,85,80,70,14802,2147733741,2147425371,2148019904,2147870491,2147611428,2147096502,2148229970,2147202322,3229,3,14,47497
1370211639,5805,315.0700073242187500,10.9760999679565430,34.1259002685546900,200.2657928466797000,462.7767028808594000,10.9384098052978520,36.1853408813476560,48,109,91,82,70,14798,2147730678,2147429156,2148027739,2147874459,2147605558,2147106578,2148229312,2147206354,1691,4,13,28166
1370211806,5809,303.6099853515625000,11.6785001754760740,34.1591987609863300,204.5018005371093800,438.5992126464844000,11.6919698715209960,35.5354499816894500,49,105,84,80,69,14795,2147733321,2147434166,2148035611,2147872978,2147599542,2147114075,2148228580,2147206180,407,3,13,41235
1370211945,5804,292.8599853515625000,12.1626996994018550,34.1879005432128900,207.3444976806640600,424.0267944335937500,12.1446104049682620,35.1330909729003900,48,107,87,79,68,14795,2147727168,2147436672,2148039725,2147872466,2147600228,2147114112,2148230701,2147209234,2313,3,13,58659
1370212116,5807,279.9100036621094000,12.9582996368408200,34.2546005249023440,216.3735046386718800,397.7192077636719000,12.9591398239135740,34.2044982910156250,49,104,88,81,67,14792,2147721929,2147433691,2148018029,2147872402,2147595081,2147122258,2148208475,2147208859,1121,3,13,29476
1370212231,5810,269.6700134277344000,13.3087997436523440,34.2743988037109400,220.4335937500000000,385.6485900878906000,13.3318395614624020,33.7951011657714840,47,105,87,80,67,14799,2147721344,2147440722,2148052790,2147872128,2147591241,2147132406,2148233462,2147211200,2785,3,14,24957
1370212360,5810,257.6499938964844000,13.9559001922607420,34.3177986145019500,220.9066925048828000,363.0389099121094000,14.0284099578857420,33.4274406433105500,49,105,90,80,68,14794,2147721069,2147456841,2148102244,2147873206,2147592804,2147145508,2148254052,2147212141,1481,2,14,55371
1370212475,5806,246.8000030517578000,14.4792003631591800,34.3521995544433600,218.3076934814453000,347.2981872558594000,14.5122995376586910,33.3329010009765600,48,105,89,81,67,14792,2147724937,2147484461,2148152064,2147874432,2147589632,2147161115,2148279387,2147212224,2980,3,14,37176
1370212590,5805,235.8600006103515600,14.8682003021240230,34.3722000122070300,215.1094970703125000,335.1878051757812500,14.8840703964233400,33.3286705017089840,49,103,86,80,67,14793,2147725293,2147530377,2148260946,2147873225,2147590546,2147190144,2148322724,2147219931,1878,3,14,8344
1370212707,5808,225.2200012207031200,15.4560003280639650,34.4514007568359400,217.1058044433593800,316.2344055175781000,15.4651298522949220,32.9410896301269500,50,107,89,80,66,14785,2147739593,2147616649,2148461376,2147872859,2147591067,2147244873,2148418276,2147228333,1237,4,14,30713
1370212834,5809,214.2700042724609400,16.0069007873535160,34.5107002258300800,217.4537963867187500,298.6711120605469000,16.0028495788574220,32.6674118041992200,50,106,88,80,65,14784,2147736027,2147548059,2148260470,2147877229,2147587035,2147209728,2148320566,2147217526,1904,3,14,43193
1370212975,5807,203.7100067138672000,16.2567005157470700,34.5415000915527340,217.8717041015625000,289.9789123535156000,16.2687702178955080,32.5201606750488300,50,104,87,80,66,14785,2147784374,2147793170,2148766985,2147876269,2147605220,2147352649,2148568118,2147243300,1037,2,15,62451
1370213066,5807,197.6699981689453000,16.5834007263183600,34.5807991027832000,216.6186065673828000,279.8937072753906000,16.5771408081054700,32.4438591003418000,52,106,87,81,66,14787,2147806966,2147868534,2148891904,2147871945,2147614162,2147398363,2148626176,2147242285,3167,2,15,12345
1370213121,5806,194.0399932861328000,16.6676998138427730,34.5957984924316400,217.0337066650390600,275.7267150878906000,16.7045192718505860,32.3621597290039060,52,106,86,79,65,14784,2147839890,2147975378,2149074660,2147876525,2147626596,2147459492,2148717805,2147251209,2598,3,14,19542
1370213176,5806,190.3300018310547000,16.9578990936279300,34.6346015930175800,217.0124969482422000,266.4486083984375000,16.9880599975585940,32.2320899963378900,53,108,87,81,64,14775,2147877074,2148085504,2149270921,2147875584,2147639625,2147533321,2148819849,2147255222,1517,2,15,64250
1370213231,5808,186.6699981689453000,17.1835994720459000,34.6665000915527340,217.8731994628906200,260.3931884765625000,17.1730709075927730,32.1003990173339840,55,112,89,80,65,14778,2147912365,2148171995,2149399085,2147875200,2147652690,2147583680,2148887926,2147262637,714,4,15,9759
1370213306,5805,181.8200073242187500,17.5289001464843750,34.7163009643554700,218.9945068359375000,249.1513061523437500,17.5164699554443360,31.8832397460937500,58,108,88,81,64,14778,2147969225,2148328832,2149659355,2147876352,2147676525,2147682587,2149011803,2147273371,833,2,15,13574
1370213361,5809,178.4900054931640600,17.7364006042480470,34.7416992187500000,218.8428039550781200,242.4656982421875000,17.7206497192382800,31.7982597351074220,58,110,86,82,65,14775,2148021814,2148456960,2149866889,2147880731,2147695460,2147767049,2149121609,2147281563,352,3,14,61115
1370213428,5808,174.4499969482422000,17.9556007385253900,34.7752990722656250,218.6591033935547000,235.3504028320312500,17.9379501342773440,31.7090492248535160,58,114,89,81,64,14775,2148061010,2148523392,2149948470,2147880640,2147716278,2147800914,2149149668,2147282002,2810,3,15,64558
1370213495,5809,170.5200042724609400,18.4941005706787100,34.8577003479003900,218.6737060546875000,218.1318054199218800,18.4637699127197270,31.4711399078369140,64,113,86,82,62,14767,2148101037,2148582710,2150015771,2147878326,2147730651,2147832475,2149170724,2147283611,2614,2,15,14065
1370213574,5809,166.4799957275390600,18.7350006103515620,34.9112014770507800,221.4660949707031200,207.5765075683593800,18.7861499786376950,31.1813297271728500,68,113,88,80,63,14760,2148248292,2148932845,2150604745,2147885129,2147792365,2148054765,2149466550,2147306249,2410,2,15,63856
1370213655,5802,162.6199951171875000,19.0648002624511720,34.9628982543945300,223.5119934082031200,199.0234985351562500,19.0474090576171880,30.9603996276855470,75,113,87,83,62,14758,2148322742,2149063350,2150755510,2147886720,2147824393,2148141924,2149547565,2147313746,2532,2,15,35015
1370213746,5804,158.7799987792968800,19.2700004577636720,34.9948997497558600,224.3379058837890600,192.3972015380859400,19.2498607635498050,30.8288707733154300,75,115,88,81,64,14752,2148548352,2149540662,2151524498,2147890057,2147928603,2148429074,2149933449,2147343241,2173,3,15,6464
1370213885,5810,154.8899993896484400,19.3341007232666000,35.0065002441406250,225.2487030029297000,189.7346954345703000,19.3312206268310550,30.7470893859863280,77,115,89,82,61,14748,2148431734,2149118363,2150700726,2147889152,2147878500,2148169627,2149494857,2147314075,1204,2,15,3882
1370213984,5808,149.9900054931640600,19.8575000762939450,35.0791015625000000,224.0699005126953000,173.9656066894531200,19.8132400512695300,30.5958099365234380,92,120,87,82,62,14736,2148471661,2149051465,2150483062,2147887862,2147893760,2148117741,2149372416,2147302427,3307,2,15,15081
1370214051,5810,146.4900054931640600,20.0373001098632800,35.1128997802734400,226.1990966796875000,167.0659027099609400,20.0242500305175780,30.3971900939941400,99,124,88,82,62,14725,2149155757,2150434450,2152623707,2147900425,2148191817,2148875812,2150341321,2147377462,2419,2,15,55371
1370214130,5809,142.2799987792968800,20.0797004699707030,35.1206016540527340,227.1537017822265600,165.6679992675781200,20.0670108795166000,30.3311996459960940,101,120,89,81,61,14719,2150062272,2152070418,2155041828,2147925083,2148568109,2149739913,2151395977,2147461878,2419,2,15,42962
1370214197,5808,138.6900024414062500,20.3903999328613280,35.1741981506347660,228.0852050781250000,155.4848022460937500,20.3785991668701170,30.1507301330566400,115,121,89,82,61,14712,2149871561,2151482166,2153927744,2147922642,2148493092,2149388315,2150875885,2147423963,2432,2,15,44630
1370214290,5804,134.4299926757812500,20.5921993255615230,35.2022018432617200,230.8061981201172000,148.9223022460937500,20.5795192718505860,29.9318809509277340,114,126,88,82,62,14696,2151138605,2153638957,2157004854,2147949622,2149031771,2150472521,2152152758,2147530349,1586,2,16,47101
1370214381,5810,130.5700073242187500,20.6646995544433600,35.1904983520507800,231.4430999755859400,146.1170959472656200,20.6654205322265620,29.8646202087402340,126,121,87,82,61,14695,2151847341,2154610852,2158177270,2147967232,2149340946,2150910628,2152601234,2147564818,1370,2,16,44915
1370214484,5805,126.9300003051757800,20.8689994812011720,35.2196998596191400,231.5157012939453000,139.5825042724609400,20.8656005859375000,29.7759304046630860,136,124,91,83,60,14688,2152849536,2156011300,2159879780,2147998601,2149728475,2151478774,2153197348,2147626148,659,1,15,22261
1370214610,5810,122.4700012207031200,21.0648994445800780,35.2476005554199200,233.3278961181640600,133.0045013427734400,21.0672206878662100,29.6038093566894530,131,126,89,82,61,14671,2154630656,2158489362,2162793837,2148042377,2150445568,2152498550,2154230564,2147727661,2842,2,15,37291
1370214701,5807,118.6600036621093800,21.2425994873046880,35.2636985778808600,235.1768035888672000,127.5519027709961000,21.2344207763671880,29.4458408355712900,152,123,90,82,60,14652,2156546724,2161119113,2165754971,2148089280,2151232630,2153560685,2155269275,2147828315,2125,2,16,58100
1370214792,5809,115.0500030517578100,21.5174999237060550,35.2946014404296900,238.8563995361328000,118.8546981811523400,21.5012702941894530,29.1627292633056640,140,121,89,83,59,14650,2158932781,2164300352,2169071890,2148145627,2152236918,2154916864,2156574226,2147958473,1322,1,15,50690
1370214906,5810,110.4000015258789000,21.7548999786376950,35.3175010681152340,241.6961059570312500,110.9554977416992200,21.7438297271728500,28.9318809509277340,88,113,89,82,60,14674,2162718290,2169118116,2173858669,2148258322,2154208045,2157533888,2158903332,2148179392,3308,2,15,25297
1370214985,5807,106.4800033569336000,21.9249000549316400,35.3210983276367200,243.0063018798828000,105.3317031860351600,21.9166393280029300,28.8013992309570300,78,118,90,82,59,14685,2165845275,2172680804,2177104356,2148354313,2156175881,2160099510,2160982189,2148363958,3457,2,15,40955
1370215064,5806,102.6100006103515600,21.9866008758544920,35.3349990844726560,243.2926940917968800,103.0096969604492200,21.9880104064941400,28.7590904235839840,76,115,86,82,59,14688,2170157750,2177752091,2182061650,2148515291,2158879104,2163580041,2163811803,2148625362,2497,1,16,10240
1370215143,5808,98.5500030517578100,22.1972999572753900,35.3512001037597660,243.0554962158203000,97.0024566650390600,22.1727600097656250,28.6937904357910160,71,118,92,82,59,14685,2175207414,2183294080,2187143963,2148703442,2162072731,2167530368,2166975003,2148918729,1947,2,15,39129
1370215200,5807,95.6999969482421900,22.3665008544921880,35.3664016723632800,243.9924011230468800,91.1433868408203100,22.3530597686767580,28.5778808593750000,71,117,90,83,57,14684,2178876470,2187399616,2191224173,2148895451,2164632649,2170567204,2169346925,2149133513,908,1,16,63338
1370215255,5809,92.9499969482421900,22.4237003326416000,35.3737983703613300,244.7911071777343800,88.9598770141601600,22.4202899932861330,28.5148792266845700,70,118,92,82,57,14683,2182735122,2191778587,2195510390,2149088054,2167542445,2173976192,2171890806,2149369106,330,2,15,54132
1370215310,5810,89.9700012207031200,22.4888992309570300,35.3782997131347660,245.4958038330078000,86.8382263183593800,22.4856300354003900,28.4569892883300780,68,118,89,82,58,14686,2187580214,2197186651,2200863003,2149405211,2170998345,2178042934,2175068461,2149677385,3464,2,15,50785
1370215365,5806,86.8000030517578100,22.5510997772216800,35.3818016052246100,246.4452972412109400,84.7019271850586000,22.5514297485351560,28.3881397247314450,67,125,89,83,58,14677,2192371977,2202494409,2206065426,2149745426,2174899849,2182551945,2178509650,2150007881,3105,2,16,7995
1370215420,5806,83.5599975585937500,22.6567993164062500,35.3862991333007800,247.0794067382812500,81.6297378540039000,22.6460990905761720,28.3218994140625000,67,119,90,85,57,14683,2198426651,2209191862,2212683291,2150206994,2179602020,2187918107,2182541229,2150407497,3025,2,16,48507
1370215475,5807,80.4400024414062500,22.6875000000000000,35.3875007629394500,247.5635986328125000,80.4312667846679700,22.6830291748046880,28.2858505249023440,65,120,91,84,58,14676,2204447579,2215634797,2218908845,2150727963,2184373970,2193183131,2186422418,2150814528,2805,1,16,25124
1370215532,5812,77.2699966430664000,22.6830005645751950,35.3855018615722660,247.7509002685547000,80.4311828613281200,22.6830406188964840,28.2774200439453120,64,121,89,84,58,14672,2210620114,2221867181,2224681490,2151347702,2189381732,2198769846,2190566144,2151264320,2338,2,15,54930
1370215587,5806,74.1299972534179700,22.5550994873046880,35.2872009277343750,248.6743927001953000,85.3768768310546900,22.5306396484375000,28.2990703582763670,66,120,92,84,59,14668,2217886454,2228703478,2230627666,2152060946,2195324608,2205294482,2195455890,2151786962,1954,2,16,22172
1370215642,5807,71.1100006103515600,22.4652996063232420,35.2406005859375000,248.1878051757812500,86.7212982177734400,22.4892292022705080,28.3371295928955080,63,115,89,83,59,14665,2228582281,2239946569,2242050916,2153221458,2200989540,2211868928,2200591945,2152415113,1751,2,16,10712
1370215697,5807,68.4199981689453100,22.6002998352050780,35.2411994934082000,248.0196990966797000,83.3148269653320300,22.5941696166992200,28.3019008636474600,64,118,95,85,60,14668,2238505728,2249407405,2250611556,2154184018,2207207606,2219015926,2205952484,2153063771,1911,2,16,44993
1370215752,5810,66.1800003051757800,22.6644001007080080,35.2416000366210940,248.6172943115234400,81.2017288208007800,22.6592903137207030,28.2493400573730470,64,117,91,84,57,14657,2245212032,2255642944,2256335424,2155095040,2211384822,2223409435,2209193737,2153507620,2039,1,16,34678
1370215807,5808,64.2399978637695300,22.8038005828857420,35.2372016906738300,248.6051025390625000,76.4338378906250000,22.8062801361084000,28.1903495788574220,73,125,92,82,59,14646,2257014107,2267551241,2268041737,2156544777,2218127213,2230956754,2215004626,2154243081,1514,2,16,6385
1370215864,5807,62.5699996948242200,22.9736995697021500,35.2621002197265600,248.7693939208984400,72.2156066894531200,22.9363994598388670,28.1306495666503900,64,117,91,86,56,14652,2249937636,2257547410,2256445257,2156064393,2215567460,2226853412,2211028425,2153876068,1408,2,16,10051
1370215919,5809,61.5000000000000000,23.0830993652343750,35.2733001708984400,249.1143951416015600,68.3776931762695300,23.0548496246337900,28.0679397583007800,60,117,91,84,59,14646,2230714651,2236013860,2234582720,2154591314,2201855305,2209775360,2196893522,2152514669,1569,2,16,31580
1370216070,5804,59.7200012207031250,23.1756992340087900,35.2678985595703100,250.1206054687500000,64.6029129028320300,23.1714191436767580,27.9776897430419920,62,117,90,84,57,14654,2278722093,2289518381,2289450788,2159633572,2234721398,2248915419,2228436406,2156070573,1922,2,16,4965
1370216232,5804,56.9199981689453100,23.2877998352050780,35.2644996643066400,250.6248931884765600,60.7327308654785160,23.2909908294677730,27.9081306457519530,58,117,92,85,59,14650,2289118272,2297472877,2296337600,2162024749,2244335597,2257321654,2233724123,2156876516,843,1,16,31595
1370216287,5807,55.1500015258789060,23.3498001098632800,35.2619018554687500,250.9698028564453000,58.6543502807617200,23.3552303314209000,27.8675708770751950,57,117,91,85,58,14647,2245920676,2248264932,2244550546,2157275236,2217953609,2224569673,2206544283,2153888000,1512,1,16,436
1370216354,5805,53.2200012207031250,23.4039001464843750,35.2622985839843750,251.3986053466797000,56.8752403259277340,23.4102306365966800,27.8273506164550780,58,120,92,85,58,14649,2307808978,2315021440,2313579840,2166243940,2262826934,2275118985,2245930496,2158736146,931,2,16,49739
1370216433,5810,51.0999984741210940,23.5133991241455080,35.2566986083984400,251.4710998535156200,53.6465797424316400,23.5100898742675780,27.7844505310058600,56,117,91,84,55,14643,2318187840,2325079570,2322677714,2168247168,2272724955,2284004461,2251562112,2159518317,120,2,16,33328
1370216511,5810,48.7500000000000000,23.5844993591308600,35.2640991210937500,251.5160064697265600,51.0653495788574200,23.5899600982666000,27.7505493164062500,55,117,92,84,54,14646,2231335040,2228349915,2222282660,2156537033,2213724434,2214559588,2195553234,2152842898,464,2,16,4338
1370216566,5807,46.3899993896484400,23.7591991424560550,35.2691993713378900,251.0903930664062500,46.3792800903320300,23.7350292205810550,27.7110805511474600,55,120,93,85,56,14642,2211132278,2206272402,2199769508,2153832393,2199418066,2197048137,2181510930,2151230299,922,2,15,8229
1370216621,5811,44.4000015258789060,23.8840007781982420,35.2673988342285160,250.9667053222656200,42.0031089782714840,23.8705997467041000,27.6624107360839840,55,119,90,83,55,14645,2232516205,2227844370,2221023753,2157673828,2219342555,2217093604,2195785654,2153164763,1654,1,16,4524
1370216676,5808,42.7700004577636700,23.9594993591308600,35.2695999145507800,251.1950073242187500,39.2736587524414060,23.9552001953125000,27.6190891265869140,54,119,90,85,57,14641,2234715968,2229065252,2221620946,2158182509,2224473810,2220870948,2197615122,2153433572,2016,1,17,2368
1370216731,5810,41.3100013732910160,24.0235996246337900,35.2680015563964840,251.1493988037109400,37.0950698852539060,24.0227603912353500,27.5943298339843750,54,120,91,84,58,14643,2267380992,2262614153,2255562203,2165054464,2255046235,2252019364,2220344420,2156775396,1504,1,16,62140
1370216821,5805,38.6699981689453100,24.1767997741699220,35.2617988586425800,250.4974975585937500,30.5451107025146500,24.2259998321533200,27.5416507720947270,55,119,91,85,54,14641,2399282569,2400107145,2398307876,2198757558,2371007314,2369927972,2306063588,2170027849,1283,1,17,52349
1370216876,5807,36.6599998474121100,24.7140007019042970,35.2663002014160160,248.2922973632812500,15.4865102767944340,24.6941204071044920,27.4513797760009770,55,119,91,84,56,14638,2397742765,2395959542,2391663149,2199284854,2383689856,2378896036,2311169682,2171511908,1441,1,16,25608
1370216931,5808,35.3100013732910160,24.9087009429931640,35.2648010253906250,247.2234039306640600,9.0195627212524410,24.8955307006835940,27.4183998107910160,53,122,94,84,61,14642,2417801545,2417685558,2416328758,2209298486,2397980489,2391797961,2320522934,2173782089,1330,1,16,10649
1370217046,5809,33.7500000000000000,25.4060001373291000,35.2508010864257800,242.9882965087890600,-7.1494817733764650,25.4001598358154300,27.4042491912841800,53,122,89,84,56,14637,2412540973,2411232429,2408672036,2209080274,2400684836,2393333065,2320618843,2173099520,698,1,15,47095
1370217185,5808,31.5300006866455080,25.6250991821289060,35.2639007568359400,240.3166046142578000,-14.6916704177856450,25.6360893249511720,27.4293098449707030,55,121,92,85,55,14649,2420563574,2418736118,2417347154,2218906084,2415971081,2405667026,2328558454,2176005558,490,1,16,59489
1370217502,5807,29.5699996948242200,25.8899993896484380,35.2678985595703100,236.8417968750000000,-23.6571407318115230,25.9170093536376950,27.4742603302001950,51,115,90,84,59,14649,2440844809,2441246363,2441187702,2230968768,2447834194,2429743378,2342879186,2179971382,15,1,16,64538